SCP
0 0 0 0 0 0 0 0 0 0 0 0 0 0 0 0 0 0 0 0 0 0 0 0 0 0 0 0 0 0 0 0 0 0 0 0 0 0 0 0 0 0 0 0 0 0 0 0 0 0 0 0 0 0
0 0 0 0 0 0 0 0 0 0 0 0 0 0 0 0 0 0 0 0 0 0 0 0 0 0 0 0 0 0 0 0 0 0 0 0 0 0 0 0 0 0 0 0 0 0 0 0 0 0 0 0 0 0
0 0 0 0 0 0 0 0 0 0 0 0 0 0 0 0 0 0 0 0 0 0 0 0 0 0 0 0 0 0 0 0 0 0 0 0 0 0 0 0 0 0 0 0 0 0 0 0 0 0 0 0 0 0
0 0 0 0 0 0 0 0 0 -0 -0 0 0 0 0 0 0 0 0 0 0 0 0 0 0 0 0 0 0 0 0 0 0 0 0 0 0 0 0 0 0 0 0 0 0 0 0 0 0 0 0 0 0 0
0 0 0 0 0 0 0 0 0 0 0 0 0 0 0 0 0 0 0 0 0 0 0 0 0 0 0 0 0 0 0 0 0 0 0 0 0 0 0 0 0 0 0 0 0 0 0 0 0 0 0 0 0 0
0 0 0 0 0 0 0 0 0 0 0 0 0 0 0 0 0 0 0 0 0 0 0 0 0 0 0 0 0 0 0 0 0 0 0 0 0 0 0 0 0 0 0 0 0 0 0 0 0 0 0 0 0 0
0 0 0 0 0 0 0 0 0 0 0 0 0 0 0 0 0 0 0 0 0 0 0 0 0 0 0 0 0 0 0 0 0 0 0 0 0 0 0 0 0 0 0 0 0 0 0 0 0 0 0 0 0 0
-0 -0 0 0 0 0 0 0 0 0 0 0 0 0 0 0 0 0 0 0 0 0 0 0 0 0 0 0 0 0 0 0 0 0 0 0 0 0 0 0 0 0 0 0 0 0 0 0 0 0 0 0 0 0
-0 -0 -0 0 0 0 0 0 0 0 0 0 0 0 0 0 0 0 0 0 0 0 0 0 0 0 0 0 0 0 0 0 0 0 0 0 0 0 0 0 0 0 0 0 0 0 0 0 0 0 0 0 0 0
0 -0 0 0 0 0 0 0 0 0 0 0 0 0 0 0 0 0 0 0 0 0 0 0 0 0 0 0 0 0 0 0 0 0 0 0 0 0 0 0 0 0 0 0 0 0 0 0 0 0 0 0 0 0
0 -0 -0 0 0 0 0 0 0 0 0 0 0 0 0 0 0 0 0 0 0 0 0 0 0 0 0 0 0 0 0 0 0 0 0 0 0 -0 -0 0 0 0 0 0 0 0 0 0 0 0 0 0 0 0
0 0 0 0 0 0 0 0 0 0 0 0 0 0 0 0 0 0 0 0 0 0 0 0 0 0 0 0 0 0 0 0 0 0 0 0 0 0 -0 0 0 0 0 0 0 0 0 0 0 0 0 0 0 0
0 0 0 0 0 0 0 0 0 0 0 0 0 0 0 0 0 0 0 0 0 0 0 0 0 0 0 0 0 0 0 0 0 0 0 0 0 0 0 0 0 0 0 0 0 0 0 0 0 0 0 0 0 0
0 0 0 0 0 0 0 0 0 0 0 0 0 0 0 0 0 0 0 0 0 0 0 0 0 0 0 0 0 0 0 0 0 0 0 0 0 0 0 0 0 0 0 0 0 0 0 0 0 0 0 0 0 0
0 0 0 0 0 0 0 0 0 0 0 0 0 0 0 0 0 0 0 0 0 0 0 0 0 0 0 0 0 0 0 0 0 0 0 0 0 0 0 0 0 0 0 0 0 0 -0 -0 0 0 0 0 0 0
0 0 0 0 0 0 0 0 0 0 0 0 0 0 0 0 0 0 0 0 0 0 0 0 0 0 0 0 0 0 0 0 0 0 0 0 0 0 0 0 0 0 0 0 0 0 0 0 0 0 0 0 0 0
0 0 0 0 0 0 0 0 0 0 0 0 0 0 0 0 0 0 0 0 0 0 0 0 0 0 0 0 0 0 0 0 0 0 0 0 0 0 0 0 0 0 0 0 -0 0 0 0 0 0 0 0 0 0
0 0 0 0 0 0 0 0 0 0 0 0 0 0 0 0 0 0 0 0 0 0 0 0 0 0 0 0 0 0 0 0 0 0 0 0 0 0 0 0 0 0 0 0 0 0 0 0 0 0 0 0 0 0
0 0 0 0 0 0 0 0 0 0 0 0 0 0 0 0 0 0 0 0 0 0 0 0 0 0 0 0 0 0 0 0 0 0 0 0 0 0 0 0 0 0 0 -0 -0 0 0 0 0 0 0 0 0 0
0 0 0 0 0 0 0 0 0 0 0 0 0 0 0 0 0 0 0 0 0 0 0 0 0 0 0 0 0 0 0 0 0 0 0 0 0 0 0 0 0 0 0 0 0 0 0 0 0 0 0 0 0 0
0 0 0 0 0 0 0 0 0 0 0 0 0 0 0 0 0 0 0 0 0 0 0 0 0 0 0 0 0 0 0 0 0 0 0 0 0 0 0 0 0 0 0 0 0 0 0 0 0 0 0 0 0 0
0 0 0 0 0 0 0 0 0 0 0 0 0 0 0 0 0 0 0 0 0 0 0 0 0 0 0 0 0 0 0 0 0 0 0 0 0 0 0 0 0 0 0 0 0 0 0 0 0 0 0 0 0 0
0 0 0 0 0 0 0 0 0 0 0 0 0 0 0 0 0 0 0 0 0 0 0 0 0 0 0 0 0 0 0 0 0 0 0 0 0 0 0 0 0 0 0 0 0 0 0 0 0 0 0 0 0 0
0 0 0 0 0 0 0 0 0 0 0 0 0 0 0 0 0 0 0 0 0 0 0 0 0 0 0 0 0 0 0 0 0 0 -0 0 0 0 0 0 0 0 0 0 0 0 0 0 0 0 0 0 0 0
0 0 0 0 0 0 0 0 0 0 0 0 0 0 0 0 0 0 0 0 0 0 0 0 0 0 -0 0 -0 -0 0 0 0 -0 0 0 0 -0 -0 -0 -0 0 0 0 0 0 0 0 0 0 0 0 0 0
0 0 0 0 0 0 0 0 0 0 0 0 0 0 0 0 0 0 0 0 0 0 0 0 0 0 0 0 0 0 0 0 0 0 -0 0 0 0 0 -0 -0 -0 0 0 0 0 0 0 0 0 0 0 0 0
0 0 0 0 0 0 0 0 0 0 0 0 0 0 0 0 0 0 0 0 0 0 0 0 0 -0 -0 -0 -0 -0 -0 0 0 0 0 0 0 0 0 0 0 0 0 0 0 0 0 0 0 0 0 0 0 0
0 0 0 0 0 0 0 0 0 0 0 0 0 0 0 0 -0 0 0 0 0 0 0 0 0 0 0 0 0 0 0 0 0 0 0 0 0 0 0 0 0 0 0 0 0 0 0 0 0 0 0 0 0 0
0 0 0 0 0 0 0 0 0 0 0 0 0 0 0 0 0 0 0 0 0 0 0 0 0 0 0 0 0 0 0 0 0 0 0 0 0 0 0 0 0 0 0 0 0 0 0 0 0 0 0 0 0 0
0 0 0 0 0 0 0 0 0 0 0 0 0 0 0 0 0 0 0 0 0 0 0 0 0 0 0 0 0 0 0 0 0 0 0 0 0 0 0 0 0 0 0 0 0 0 0 0 0 0 0 0 0 0
0 0 0 0 0 0 0 0 0 0 0 0 0 0 0 0 0 0 0 0 0 0 0 0 0 0 0 0 0 0 0 0 0 0 0 0 0 0 0 0 0 0 0 0 0 0 0 0 0 0 0 0 0 0
0 0 0 0 0 0 0 0 0 0 0 0 0 0 0 0 0 0 0 0 0 0 0 0 0 0 0 0 0 0 0 0 0 0 0 0 0 0 0 0 0 0 0 0 0 0 0 0 0 0 0 0 0 0
0 0 0 0 0 0 0 0 0 0 0 0 0 0 0 0 0 0 0 0 0 0 0 0 0 0 0 0 0 0 0 0 0 0 0 0 0 0 0 0 0 0 0 0 0 0 0 0 0 0 0 0 0 0
Wind_Speed_500mb
50 47 44 44 40 45 48 44 41 28 37 73 33 102 101 90 100 68 67 62 56 24 32 30 34 34 32 39 11 20 13 7 5 8 7 7 6 12 8 12 14 13 14 8 6 7 17 21 12 12 11 11 13 14
52 52 49 48 44 44 47 47 44 40 44 58 48 92 103 99 96 72 62 57 46 37 21 32 31 36 46 48 46 36 7 15 21 7 4 6 5 5 9 8 1 8 11 10 17 11 4 26 16 22 17 17 21 18
54 54 53 50 50 44 49 52 51 50 47 43 72 77 99 107 106 77 71 66 49 53 31 27 28 29 34 41 40 23 15 15 13 11 14 4 7 7 11 10 8 5 8 7 4 11 23 31 33 40 41 41 46 38
54 55 56 54 55 54 49 54 55 57 49 57 67 74 116 115 109 80 76 71 60 35 12 8 31 33 30 25 36 37 23 29 22 16 6 4 5 8 6 2 12 10 18 10 9 12 25 38 48 48 46 52 54 51
55 56 57 57 57 58 55 55 61 64 64 54 66 83 87 106 96 83 73 69 58 33 15 20 28 26 29 29 30 28 26 34 21 10 4 2 6 5 3 2 8 15 13 12 14 28 32 32 34 37 41 46 51 49
57 59 59 60 62 61 61 59 61 60 58 60 80 94 85 110 106 90 40 60 65 39 23 7 13 21 27 29 27 25 23 18 10 9 7 8 6 6 3 9 12 36 33 36 27 41 35 37 41 49 52 43 33 29
61 61 60 60 64 64 64 63 68 67 68 70 80 85 100 111 99 87 34 60 71 51 17 9 6 13 25 23 17 15 13 10 7 7 4 6 6 9 3 18 15 25 34 48 52 36 28 43 53 37 29 33 34 34
60 61 60 64 67 71 68 71 73 73 79 83 99 84 117 112 84 52 51 83 71 48 14 8 4 11 22 10 10 11 11 9 6 7 6 3 5 6 11 22 38 42 40 48 50 50 54 59 55 55 50 45 41 41
55 58 63 68 73 79 79 77 80 84 88 97 100 104 107 89 40 59 88 77 60 19 19 9 12 8 22 11 11 7 7 4 5 3 4 13 7 14 25 26 36 48 53 59 51 45 58 65 66 65 65 60 61 62
49 60 72 81 81 80 80 82 82 95 102 110 123 67 22 44 84 92 36 15 12 7 11 8 17 9 19 10 6 9 5 4 4 5 9 7 13 58 38 57 62 64 65 59 58 61 63 74 74 76 70 54 50 49
48 63 56 59 65 91 96 104 111 129 136 92 20 13 96 99 61 15 12 10 11 4 13 14 16 18 13 8 6 5 5 5 5 4 6 6 8 10 16 30 35 40 42 43 50 63 67 73 60 66 63 53 51 48
42 27 20 56 84 106 104 118 146 128 73 51 68 79 60 16 14 11 6 7 5 11 13 22 25 23 20 14 11 7 6 5 6 8 5 7 9 25 12 14 19 12 20 27 33 41 46 62 76 79 73 66 57 59
4 12 52 63 89 108 125 141 130 101 96 124 51 14 14 6 10 12 15 5 10 20 22 31 15 20 14 11 11 6 9 7 11 6 8 7 30 28 26 25 25 21 22 20 24 28 34 39 37 42 47 45 45 46
53 85 105 116 147 160 146 133 118 131 94 18 13 11 5 7 8 7 7 12 21 44 66 57 21 11 11 8 8 9 6 9 6 9 11 8 34 22 21 20 16 18 9 19 21 25 29 35 39 38 38 34 38 38
61 85 94 102 111 118 124 131 102 71 26 15 13 9 5 9 13 19 34 36 49 80 67 42 19 13 6 10 5 8 11 10 13 8 7 18 11 13 9 19 21 14 13 36 32 34 35 35 37 37 39 34 31 34
83 94 95 104 102 105 86 76 69 42 15 12 12 13 20 21 8 13 40 52 67 71 53 17 8 7 5 12 10 13 16 16 8 8 30 17 7 12 24 27 20 16 43 52 43 40 38 32 28 25 26 31 35 35
74 64 79 100 78 70 63 62 36 19 13 10 10 35 22 31 24 28 43 53 73 46 6 9 9 6 11 7 11 12 12 7 35 26 20 20 22 28 36 50 43 40 43 46 51 47 39 31 28 29 30 32 32 31
85 79 92 88 67 63 51 30 17 17 15 17 10 20 25 45 54 47 39 70 47 17 18 8 18 9 14 16 9 7 22 17 17 27 28 27 32 37 40 48 45 37 38 43 48 43 35 31 29 28 31 30 26 24
83 77 75 65 49 30 13 16 18 11 17 11 24 28 35 39 43 40 62 59 26 19 29 10 7 8 7 9 11 16 19 26 26 28 24 26 29 32 29 26 21 27 32 40 38 34 31 29 27 28 28 24 22 21
72 71 66 49 19 14 14 11 14 17 6 6 16 18 20 23 38 38 54 45 28 19 5 5 6 10 18 34 25 20 20 15 24 32 34 31 40 40 21 19 29 42 46 44 41 36 32 28 26 24 23 23 21 19
69 62 51 30 40 23 14 10 13 12 18 12 22 16 13 24 22 21 25 50 19 11 5 21 37 53 51 36 29 24 25 28 36 38 31 39 36 37 39 34 48 55 50 44 39 33 28 26 28 23 22 21 19 18
58 74 49 23 15 11 13 10 17 15 9 14 14 13 11 7 9 15 27 12 16 27 42 53 63 60 59 60 62 65 66 60 57 60 60 57 64 72 64 56 54 54 45 36 34 32 27 26 26 23 23 24 22 21
71 48 21 10 9 11 9 16 11 7 7 8 13 7 3 7 14 31 15 15 29 53 56 58 56 54 64 65 60 65 68 65 69 74 69 62 63 65 64 60 59 53 49 42 31 28 27 27 25 24 23 24 24 23
50 14 8 7 8 8 16 7 9 10 11 7 6 6 7 7 22 5 5 10 43 43 53 71 78 77 76 76 80 87 88 84 80 76 69 64 65 63 58 56 56 57 51 44 34 32 34 30 26 26 25 26 26 24
15 1 9 7 8 9 6 9 6 6 7 7 6 3 7 11 6 7 7 13 29 38 45 52 62 67 74 77 77 71 67 62 59 62 57 61 66 65 63 60 59 50 39 37 37 36 36 35 29 27 28 29 26 23
7 13 13 8 8 8 8 8 8 9 10 9 6 9 8 6 5 11 7 27 48 50 50 49 50 60 67 66 66 67 66 54 43 42 43 45 47 51 57 58 52 46 41 38 39 39 37 34 30 29 30 30 27 26
9 7 11 12 17 22 11 9 16 8 8 10 8 7 6 5 9 8 19 30 41 40 33 28 30 41 46 48 47 48 47 44 41 41 37 34 34 33 36 43 48 43 39 41 36 36 33 31 29 28 29 30 29 26
7 15 13 18 11 10 11 8 10 12 10 16 18 12 16 17 11 9 13 12 15 18 19 19 17 17 19 23 25 28 31 35 32 29 28 29 31 33 33 31 32 30 29 28 28 27 26 24 24 26 27 29 28 29
6 23 24 6 4 6 10 10 12 16 28 34 14 9 11 16 15 14 13 14 16 13 13 11 14 16 17 18 16 18 20 23 28 30 30 28 23 23 26 25 26 28 30 28 25 23 22 22 24 24 23 25 26 29
12 25 10 7 9 8 6 9 14 32 30 28 19 12 11 12 15 20 19 18 16 17 21 21 21 18 17 15 13 11 11 11 19 22 24 23 17 18 16 19 22 24 25 24 22 18 18 25 28 30 31 34 37 36
37 13 9 6 5 5 7 12 12 16 17 17 19 13 8 7 11 17 22 23 24 26 24 20 16 13 14 15 16 16 16 14 15 17 18 18 17 15 15 17 17 19 22 25 21 18 20 26 30 31 33 37 38 34
17 12 8 8 6 17 19 10 12 9 8 9 9 11 6 7 8 10 18 23 27 26 19 16 18 16 15 17 19 19 19 19 19 21 23 25 25 23 22 22 21 22 23 22 22 22 23 27 30 32 35 40 39 35
13 13 11 11 8 8 9 8 4 4 1 1 4 4 7 6 9 9 10 15 15 13 13 16 17 12 10 10 10 13 17 23 29 32 33 32 30 24 21 22 24 21 22 25 26 25 27 30 32 35 37 37 37 35
Wind_Direction_500mb
247 241 239 232 231 223 225 226 239 237 240 219 239 205 201 200 192 165 172 168 174 128 156 164 162 156 157 175 149 162 126 214 110 159 162 182 177 210 182 161 171 160 170 186 172 198 255 194 127 178 212 228 267 301
243 237 233 228 228 223 223 223 225 230 238 226 221 206 198 196 186 175 168 164 172 151 146 160 169 179 191 193 191 170 181 164 172 138 166 141 167 182 162 203 333 203 192 181 190 206 209 188 220 217 244 238 265 280
238 232 228 225 225 228 230 226 220 223 231 231 220 206 201 185 182 176 171 168 157 118 112 135 142 157 186 202 197 176 184 170 176 157 153 153 195 157 173 216 192 248 189 201 126 205 238 252 253 259 259 259 267 278
234 229 226 226 222 225 232 231 227 227 222 225 218 209 197 187 183 176 167 165 161 130 105 121 145 136 139 163 195 200 212 187 165 164 129 150 174 202 195 236 208 189 155 178 262 276 268 265 264 268 266 272 267 265
232 227 226 227 227 225 231 236 233 229 223 213 213 205 196 184 176 169 166 166 172 151 136 135 150 150 145 131 128 143 164 168 150 133 110 133 114 158 62 295 227 189 176 191 235 234 235 251 278 284 280 280 271 265
232 227 226 229 229 229 233 242 226 221 223 217 207 205 200 191 175 162 144 172 176 170 112 127 144 160 154 149 140 136 143 143 133 133 137 121 134 131 192 253 248 227 230 246 252 267 266 277 282 272 267 266 269 266
230 228 229 229 233 234 241 233 221 220 217 210 199 200 196 183 167 165 167 178 176 170 115 94 106 153 155 144 129 128 123 108 106 119 132 131 146 142 209 254 244 237 245 256 257 261 267 271 264 262 254 270 266 262
227 229 231 231 234 239 236 232 227 221 210 198 190 186 174 161 159 156 147 155 157 148 119 118 106 142 159 130 107 120 125 115 94 115 115 131 135 165 245 237 220 235 242 245 251 256 257 264 258 265 268 267 262 258
226 233 237 239 239 247 235 227 214 202 194 181 189 176 158 161 148 143 145 153 157 140 128 126 143 160 156 102 102 89 112 126 152 148 191 160 194 227 232 232 235 252 244 256 263 261 242 246 249 254 262 266 265 267
231 238 243 248 243 224 209 197 185 177 173 180 157 138 132 151 142 142 127 120 126 155 123 98 124 126 146 129 101 105 90 102 151 221 169 222 246 249 258 261 267 270 274 271 261 255 254 256 257 258 264 277 274 268
247 263 256 240 214 189 180 182 174 170 169 149 125 97 130 131 121 86 115 140 140 106 151 125 136 123 126 109 119 85 133 140 181 204 215 238 264 258 308 264 278 281 277 276 264 262 267 272 271 281 283 281 284 277
278 265 219 164 166 170 173 171 167 159 159 147 129 130 129 103 90 95 105 113 150 162 150 135 144 118 118 116 102 161 133 159 189 155 225 260 263 301 278 318 334 301 297 291 287 282 277 269 269 273 275 274 269 271
81 141 157 164 165 167 165 160 156 152 139 126 113 90 112 94 101 147 159 181 145 165 157 147 121 123 121 114 108 145 153 164 124 199 234 237 258 276 291 302 298 282 291 301 304 299 297 291 280 271 269 269 273 270
121 113 137 139 137 137 144 147 146 135 129 87 98 113 126 153 183 177 158 135 134 144 141 130 113 118 128 101 131 137 141 133 186 224 226 239 252 277 298 300 295 309 315 324 316 308 296 283 283 284 279 277 284 284
131 108 118 124 129 128 128 130 130 131 101 92 101 87 89 123 100 128 125 118 130 140 132 113 85 100 91 109 149 133 166 217 218 221 219 245 287 303 335 340 296 251 332 337 315 311 308 293 283 284 280 275 278 280
128 125 125 123 128 123 124 125 124 99 76 82 87 90 116 108 112 110 114 119 138 137 131 109 117 122 126 133 155 187 178 216 202 207 216 237 243 309 330 342 342 278 313 318 314 309 303 294 280 277 279 286 285 282
127 133 126 128 118 117 122 116 84 58 63 69 79 126 118 120 125 127 137 146 153 143 128 130 116 138 122 157 193 184 214 185 200 214 249 233 271 295 302 312 302 297 308 304 308 299 290 281 276 280 289 293 290 289
138 136 143 138 118 112 99 62 75 64 65 64 86 103 111 138 142 141 157 157 163 156 134 140 131 158 172 184 206 210 219 227 241 260 256 268 287 289 298 292 285 291 297 298 303 297 281 272 272 280 289 286 286 291
148 148 145 142 129 93 67 41 49 76 47 65 107 99 107 121 143 149 157 160 174 143 123 128 138 185 195 208 204 204 219 236 245 260 264 254 268 294 303 311 325 334 317 304 302 297 282 267 272 284 283 279 285 293
152 152 152 126 97 74 75 65 73 86 65 79 103 92 86 100 131 145 167 163 137 159 163 199 202 199 208 215 222 237 237 239 268 261 267 271 286 285 273 266 294 317 315 311 306 291 274 266 275 276 275 273 281 290
154 158 144 123 66 64 81 79 71 100 125 113 129 121 106 130 124 142 161 184 189 202 199 219 231 240 249 244 248 251 241 252 265 261 263 272 283 272 284 299 294 305 301 301 298 294 275 273 273 269 266 264 274 284
145 159 138 109 55 71 80 69 114 103 74 110 98 79 89 98 134 175 171 183 209 217 215 221 230 235 244 252 252 254 260 265 270 268 266 270 268 274 278 284 290 291 295 287 289 286 267 262 263 266 262 262 271 271
148 145 122 69 77 60 82 106 72 65 107 143 124 102 118 173 191 166 195 222 234 234 235 239 243 249 251 259 260 260 260 262 266 268 271 271 271 272 274 276 280 279 281 279 283 267 252 252 257 262 260 260 264 264
141 87 129 122 88 101 138 101 100 100 104 138 153 169 180 190 165 189 234 242 240 244 240 243 243 247 251 255 259 262 264 265 267 269 269 264 264 272 268 273 265 278 273 278 271 258 245 245 254 260 261 258 259 259
100 205 101 101 124 129 112 123 130 103 131 168 139 151 164 162 177 213 229 259 256 260 261 262 252 247 249 253 258 263 267 270 274 276 278 271 269 270 267 267 271 273 262 260 269 260 248 243 252 260 258 254 253 255
120 178 164 147 140 122 155 128 136 141 141 165 181 124 137 149 197 241 226 245 253 262 262 262 260 251 249 253 258 263 269 277 276 267 267 264 261 260 260 259 257 259 260 258 263 252 243 243 255 259 255 245 239 239
125 152 166 150 149 132 98 92 132 123 157 164 158 130 130 178 249 248 244 254 257 264 262 266 260 255 261 265 266 267 269 266 261 262 262 262 259 257 251 250 251 254 251 250 246 241 239 251 257 253 244 234 233 233
137 159 152 152 122 136 131 129 148 176 176 172 134 171 183 198 228 231 225 250 246 254 260 264 264 266 270 274 276 273 267 259 243 240 241 244 249 248 246 246 239 232 233 235 235 236 243 247 245 242 237 233 228 219
136 141 126 114 100 153 178 165 191 184 163 166 172 184 215 215 231 241 254 254 259 257 270 272 272 278 286 297 286 285 274 251 229 235 237 242 246 240 232 225 225 230 232 232 231 227 225 228 234 231 222 213 206 202
169 164 98 95 135 201 203 176 175 173 180 184 197 208 221 231 249 251 251 254 258 267 275 283 289 280 265 261 267 279 284 264 233 235 247 245 242 231 229 226 227 232 230 223 216 219 233 238 228 216 205 196 193 190
149 141 87 99 159 166 183 187 177 182 193 206 219 236 253 257 258 256 248 251 258 263 272 281 279 266 246 245 243 247 253 258 248 244 242 242 240 236 243 234 228 221 210 201 210 228 247 237 221 213 203 194 187 184
140 148 138 132 148 154 147 160 152 156 167 198 213 215 235 236 243 234 231 238 247 255 260 259 270 281 241 237 241 246 249 254 257 259 259 257 255 250 243 233 214 211 214 222 229 228 227 216 207 199 193 187 184 182
115 118 107 111 129 151 166 152 116 89 116 269 240 225 220 215 244 242 243 244 243 233 234 254 263 252 223 226 244 259 265 268 270 271 267 258 248 239 226 222 221 223 236 235 223 209 197 187 186 186 184 177 174 176
Wind_Speed_850mb
50 47 44 44 40 45 48 44 41 28 37 73 33 102 101 90 100 68 67 62 56 24 32 30 34 34 32 39 11 20 13 7 5 8 7 7 6 12 8 12 14 13 14 8 6 7 17 21 12 12 11 11 13 14
52 52 49 48 44 44 47 47 44 40 44 58 48 92 103 99 96 72 62 57 46 37 21 32 31 36 46 48 46 36 7 15 21 7 4 6 5 5 9 8 1 8 11 10 17 11 4 26 16 22 17 17 21 18
54 54 53 50 50 44 49 52 51 50 47 43 72 77 99 107 106 77 71 66 49 53 31 27 28 29 34 41 40 23 15 15 13 11 14 4 7 7 11 10 8 5 8 7 4 11 23 31 33 40 41 41 46 38
54 55 56 54 55 54 49 54 55 57 49 57 67 74 116 115 109 80 76 71 60 35 12 8 31 33 30 25 36 37 23 29 22 16 6 4 5 8 6 2 12 10 18 10 9 12 25 38 48 48 46 52 54 51
55 56 57 57 57 58 55 55 61 64 64 54 66 83 87 106 96 83 73 69 58 33 15 20 28 26 29 29 30 28 26 34 21 10 4 2 6 5 3 2 8 15 13 12 14 28 32 32 34 37 41 46 51 49
57 59 59 60 62 61 61 59 61 60 58 60 80 94 85 110 106 90 40 60 65 39 23 7 13 21 27 29 27 25 23 18 10 9 7 8 6 6 3 9 12 36 33 36 27 41 35 37 41 49 52 43 33 29
61 61 60 60 64 64 64 63 68 67 68 70 80 85 100 111 99 87 34 60 71 51 17 9 6 13 25 23 17 15 13 10 7 7 4 6 6 9 3 18 15 25 34 48 52 36 28 43 53 37 29 33 34 34
60 61 60 64 67 71 68 71 73 73 79 83 99 84 117 112 84 52 51 83 71 48 14 8 4 11 22 10 10 11 11 9 6 7 6 3 5 6 11 22 38 42 40 48 50 50 54 59 55 55 50 45 41 41
55 58 63 68 73 79 79 77 80 84 88 97 100 104 107 89 40 59 88 77 60 19 19 9 12 8 22 11 11 7 7 4 5 3 4 13 7 14 25 26 36 48 53 59 51 45 58 65 66 65 65 60 61 62
49 60 72 81 81 80 80 82 82 95 102 110 123 67 22 44 84 92 36 15 12 7 11 8 17 9 19 10 6 9 5 4 4 5 9 7 13 58 38 57 62 64 65 59 58 61 63 74 74 76 70 54 50 49
48 63 56 59 65 91 96 104 111 129 136 92 20 13 96 99 61 15 12 10 11 4 13 14 16 18 13 8 6 5 5 5 5 4 6 6 8 10 16 30 35 40 42 43 50 63 67 73 60 66 63 53 51 48
42 27 20 56 84 106 104 118 146 128 73 51 68 79 60 16 14 11 6 7 5 11 13 22 25 23 20 14 11 7 6 5 6 8 5 7 9 25 12 14 19 12 20 27 33 41 46 62 76 79 73 66 57 59
4 12 52 63 89 108 125 141 130 101 96 124 51 14 14 6 10 12 15 5 10 20 22 31 15 20 14 11 11 6 9 7 11 6 8 7 30 28 26 25 25 21 22 20 24 28 34 39 37 42 47 45 45 46
53 85 105 116 147 160 146 133 118 131 94 18 13 11 5 7 8 7 7 12 21 44 66 57 21 11 11 8 8 9 6 9 6 9 11 8 34 22 21 20 16 18 9 19 21 25 29 35 39 38 38 34 38 38
61 85 94 102 111 118 124 131 102 71 26 15 13 9 5 9 13 19 34 36 49 80 67 42 19 13 6 10 5 8 11 10 13 8 7 18 11 13 9 19 21 14 13 36 32 34 35 35 37 37 39 34 31 34
83 94 95 104 102 105 86 76 69 42 15 12 12 13 20 21 8 13 40 52 67 71 53 17 8 7 5 12 10 13 16 16 8 8 30 17 7 12 24 27 20 16 43 52 43 40 38 32 28 25 26 31 35 35
74 64 79 100 78 70 63 62 36 19 13 10 10 35 22 31 24 28 43 53 73 46 6 9 9 6 11 7 11 12 12 7 35 26 20 20 22 28 36 50 43 40 43 46 51 47 39 31 28 29 30 32 32 31
85 79 92 88 67 63 51 30 17 17 15 17 10 20 25 45 54 47 39 70 47 17 18 8 18 9 14 16 9 7 22 17 17 27 28 27 32 37 40 48 45 37 38 43 48 43 35 31 29 28 31 30 26 24
83 77 75 65 49 30 13 16 18 11 17 11 24 28 35 39 43 40 62 59 26 19 29 10 7 8 7 9 11 16 19 26 26 28 24 26 29 32 29 26 21 27 32 40 38 34 31 29 27 28 28 24 22 21
72 71 66 49 19 14 14 11 14 17 6 6 16 18 20 23 38 38 54 45 28 19 5 5 6 10 18 34 25 20 20 15 24 32 34 31 40 40 21 19 29 42 46 44 41 36 32 28 26 24 23 23 21 19
69 62 51 30 40 23 14 10 13 12 18 12 22 16 13 24 22 21 25 50 19 11 5 21 37 53 51 36 29 24 25 28 36 38 31 39 36 37 39 34 48 55 50 44 39 33 28 26 28 23 22 21 19 18
58 74 49 23 15 11 13 10 17 15 9 14 14 13 11 7 9 15 27 12 16 27 42 53 63 60 59 60 62 65 66 60 57 60 60 57 64 72 64 56 54 54 45 36 34 32 27 26 26 23 23 24 22 21
71 48 21 10 9 11 9 16 11 7 7 8 13 7 3 7 14 31 15 15 29 53 56 58 56 54 64 65 60 65 68 65 69 74 69 62 63 65 64 60 59 53 49 42 31 28 27 27 25 24 23 24 24 23
50 14 8 7 8 8 16 7 9 10 11 7 6 6 7 7 22 5 5 10 43 43 53 71 78 77 76 76 80 87 88 84 80 76 69 64 65 63 58 56 56 57 51 44 34 32 34 30 26 26 25 26 26 24
15 1 9 7 8 9 6 9 6 6 7 7 6 3 7 11 6 7 7 13 29 38 45 52 62 67 74 77 77 71 67 62 59 62 57 61 66 65 63 60 59 50 39 37 37 36 36 35 29 27 28 29 26 23
7 13 13 8 8 8 8 8 8 9 10 9 6 9 8 6 5 11 7 27 48 50 50 49 50 60 67 66 66 67 66 54 43 42 43 45 47 51 57 58 52 46 41 38 39 39 37 34 30 29 30 30 27 26
9 7 11 12 17 22 11 9 16 8 8 10 8 7 6 5 9 8 19 30 41 40 33 28 30 41 46 48 47 48 47 44 41 41 37 34 34 33 36 43 48 43 39 41 36 36 33 31 29 28 29 30 29 26
7 15 13 18 11 10 11 8 10 12 10 16 18 12 16 17 11 9 13 12 15 18 19 19 17 17 19 23 25 28 31 35 32 29 28 29 31 33 33 31 32 30 29 28 28 27 26 24 24 26 27 29 28 29
6 23 24 6 4 6 10 10 12 16 28 34 14 9 11 16 15 14 13 14 16 13 13 11 14 16 17 18 16 18 20 23 28 30 30 28 23 23 26 25 26 28 30 28 25 23 22 22 24 24 23 25 26 29
12 25 10 7 9 8 6 9 14 32 30 28 19 12 11 12 15 20 19 18 16 17 21 21 21 18 17 15 13 11 11 11 19 22 24 23 17 18 16 19 22 24 25 24 22 18 18 25 28 30 31 34 37 36
37 13 9 6 5 5 7 12 12 16 17 17 19 13 8 7 11 17 22 23 24 26 24 20 16 13 14 15 16 16 16 14 15 17 18 18 17 15 15 17 17 19 22 25 21 18 20 26 30 31 33 37 38 34
17 12 8 8 6 17 19 10 12 9 8 9 9 11 6 7 8 10 18 23 27 26 19 16 18 16 15 17 19 19 19 19 19 21 23 25 25 23 22 22 21 22 23 22 22 22 23 27 30 32 35 40 39 35
13 13 11 11 8 8 9 8 4 4 1 1 4 4 7 6 9 9 10 15 15 13 13 16 17 12 10 10 10 13 17 23 29 32 33 32 30 24 21 22 24 21 22 25 26 25 27 30 32 35 37 37 37 35
Wind_Direction_850mb
247 241 239 232 231 223 225 226 239 237 240 219 239 205 201 200 192 165 172 168 174 128 156 164 162 156 157 175 149 162 126 214 110 159 162 182 177 210 182 161 171 160 170 186 172 198 255 194 127 178 212 228 267 301
243 237 233 228 228 223 223 223 225 230 238 226 221 206 198 196 186 175 168 164 172 151 146 160 169 179 191 193 191 170 181 164 172 138 166 141 167 182 162 203 333 203 192 181 190 206 209 188 220 217 244 238 265 280
238 232 228 225 225 228 230 226 220 223 231 231 220 206 201 185 182 176 171 168 157 118 112 135 142 157 186 202 197 176 184 170 176 157 153 153 195 157 173 216 192 248 189 201 126 205 238 252 253 259 259 259 267 278
234 229 226 226 222 225 232 231 227 227 222 225 218 209 197 187 183 176 167 165 161 130 105 121 145 136 139 163 195 200 212 187 165 164 129 150 174 202 195 236 208 189 155 178 262 276 268 265 264 268 266 272 267 265
232 227 226 227 227 225 231 236 233 229 223 213 213 205 196 184 176 169 166 166 172 151 136 135 150 150 145 131 128 143 164 168 150 133 110 133 114 158 62 295 227 189 176 191 235 234 235 251 278 284 280 280 271 265
232 227 226 229 229 229 233 242 226 221 223 217 207 205 200 191 175 162 144 172 176 170 112 127 144 160 154 149 140 136 143 143 133 133 137 121 134 131 192 253 248 227 230 246 252 267 266 277 282 272 267 266 269 266
230 228 229 229 233 234 241 233 221 220 217 210 199 200 196 183 167 165 167 178 176 170 115 94 106 153 155 144 129 128 123 108 106 119 132 131 146 142 209 254 244 237 245 256 257 261 267 271 264 262 254 270 266 262
227 229 231 231 234 239 236 232 227 221 210 198 190 186 174 161 159 156 147 155 157 148 119 118 106 142 159 130 107 120 125 115 94 115 115 131 135 165 245 237 220 235 242 245 251 256 257 264 258 265 268 267 262 258
226 233 237 239 239 247 235 227 214 202 194 181 189 176 158 161 148 143 145 153 157 140 128 126 143 160 156 102 102 89 112 126 152 148 191 160 194 227 232 232 235 252 244 256 263 261 242 246 249 254 262 266 265 267
231 238 243 248 243 224 209 197 185 177 173 180 157 138 132 151 142 142 127 120 126 155 123 98 124 126 146 129 101 105 90 102 151 221 169 222 246 249 258 261 267 270 274 271 261 255 254 256 257 258 264 277 274 268
247 263 256 240 214 189 180 182 174 170 169 149 125 97 130 131 121 86 115 140 140 106 151 125 136 123 126 109 119 85 133 140 181 204 215 238 264 258 308 264 278 281 277 276 264 262 267 272 271 281 283 281 284 277
278 265 219 164 166 170 173 171 167 159 159 147 129 130 129 103 90 95 105 113 150 162 150 135 144 118 118 116 102 161 133 159 189 155 225 260 263 301 278 318 334 301 297 291 287 282 277 269 269 273 275 274 269 271
81 141 157 164 165 167 165 160 156 152 139 126 113 90 112 94 101 147 159 181 145 165 157 147 121 123 121 114 108 145 153 164 124 199 234 237 258 276 291 302 298 282 291 301 304 299 297 291 280 271 269 269 273 270
121 113 137 139 137 137 144 147 146 135 129 87 98 113 126 153 183 177 158 135 134 144 141 130 113 118 128 101 131 137 141 133 186 224 226 239 252 277 298 300 295 309 315 324 316 308 296 283 283 284 279 277 284 284
131 108 118 124 129 128 128 130 130 131 101 92 101 87 89 123 100 128 125 118 130 140 132 113 85 100 91 109 149 133 166 217 218 221 219 245 287 303 335 340 296 251 332 337 315 311 308 293 283 284 280 275 278 280
128 125 125 123 128 123 124 125 124 99 76 82 87 90 116 108 112 110 114 119 138 137 131 109 117 122 126 133 155 187 178 216 202 207 216 237 243 309 330 342 342 278 313 318 314 309 303 294 280 277 279 286 285 282
127 133 126 128 118 117 122 116 84 58 63 69 79 126 118 120 125 127 137 146 153 143 128 130 116 138 122 157 193 184 214 185 200 214 249 233 271 295 302 312 302 297 308 304 308 299 290 281 276 280 289 293 290 289
138 136 143 138 118 112 99 62 75 64 65 64 86 103 111 138 142 141 157 157 163 156 134 140 131 158 172 184 206 210 219 227 241 260 256 268 287 289 298 292 285 291 297 298 303 297 281 272 272 280 289 286 286 291
148 148 145 142 129 93 67 41 49 76 47 65 107 99 107 121 143 149 157 160 174 143 123 128 138 185 195 208 204 204 219 236 245 260 264 254 268 294 303 311 325 334 317 304 302 297 282 267 272 284 283 279 285 293
152 152 152 126 97 74 75 65 73 86 65 79 103 92 86 100 131 145 167 163 137 159 163 199 202 199 208 215 222 237 237 239 268 261 267 271 286 285 273 266 294 317 315 311 306 291 274 266 275 276 275 273 281 290
154 158 144 123 66 64 81 79 71 100 125 113 129 121 106 130 124 142 161 184 189 202 199 219 231 240 249 244 248 251 241 252 265 261 263 272 283 272 284 299 294 305 301 301 298 294 275 273 273 269 266 264 274 284
145 159 138 109 55 71 80 69 114 103 74 110 98 79 89 98 134 175 171 183 209 217 215 221 230 235 244 252 252 254 260 265 270 268 266 270 268 274 278 284 290 291 295 287 289 286 267 262 263 266 262 262 271 271
148 145 122 69 77 60 82 106 72 65 107 143 124 102 118 173 191 166 195 222 234 234 235 239 243 249 251 259 260 260 260 262 266 268 271 271 271 272 274 276 280 279 281 279 283 267 252 252 257 262 260 260 264 264
141 87 129 122 88 101 138 101 100 100 104 138 153 169 180 190 165 189 234 242 240 244 240 243 243 247 251 255 259 262 264 265 267 269 269 264 264 272 268 273 265 278 273 278 271 258 245 245 254 260 261 258 259 259
100 205 101 101 124 129 112 123 130 103 131 168 139 151 164 162 177 213 229 259 256 260 261 262 252 247 249 253 258 263 267 270 274 276 278 271 269 270 267 267 271 273 262 260 269 260 248 243 252 260 258 254 253 255
120 178 164 147 140 122 155 128 136 141 141 165 181 124 137 149 197 241 226 245 253 262 262 262 260 251 249 253 258 263 269 277 276 267 267 264 261 260 260 259 257 259 260 258 263 252 243 243 255 259 255 245 239 239
125 152 166 150 149 132 98 92 132 123 157 164 158 130 130 178 249 248 244 254 257 264 262 266 260 255 261 265 266 267 269 266 261 262 262 262 259 257 251 250 251 254 251 250 246 241 239 251 257 253 244 234 233 233
137 159 152 152 122 136 131 129 148 176 176 172 134 171 183 198 228 231 225 250 246 254 260 264 264 266 270 274 276 273 267 259 243 240 241 244 249 248 246 246 239 232 233 235 235 236 243 247 245 242 237 233 228 219
136 141 126 114 100 153 178 165 191 184 163 166 172 184 215 215 231 241 254 254 259 257 270 272 272 278 286 297 286 285 274 251 229 235 237 242 246 240 232 225 225 230 232 232 231 227 225 228 234 231 222 213 206 202
169 164 98 95 135 201 203 176 175 173 180 184 197 208 221 231 249 251 251 254 258 267 275 283 289 280 265 261 267 279 284 264 233 235 247 245 242 231 229 226 227 232 230 223 216 219 233 238 228 216 205 196 193 190
149 141 87 99 159 166 183 187 177 182 193 206 219 236 253 257 258 256 248 251 258 263 272 281 279 266 246 245 243 247 253 258 248 244 242 242 240 236 243 234 228 221 210 201 210 228 247 237 221 213 203 194 187 184
140 148 138 132 148 154 147 160 152 156 167 198 213 215 235 236 243 234 231 238 247 255 260 259 270 281 241 237 241 246 249 254 257 259 259 257 255 250 243 233 214 211 214 222 229 228 227 216 207 199 193 187 184 182
115 118 107 111 129 151 166 152 116 89 116 269 240 225 220 215 244 242 243 244 243 233 234 254 263 252 223 226 244 259 265 268 270 271 267 258 248 239 226 222 221 223 236 235 223 209 197 187 186 186 184 177 174 176